Reflectivity
-20 -1 -20 -20 -11 -3 -20 -2 -11 -20 -20 -10 -5 -20 -20 -20 -20 -20 -20 -20 -20 -20 -20 -20 -20 -20 -20 -20 -20 -20 -20 -19 14 -20 -20 -20 -20 -20 -20 -20 -20 -20 -20 -20 -20 -20 -20
-20 4 -20 -1 4 -20 -2 12 9 -4 -20 -20 -19 -1 -20 -20 -20 -20 -20 -20 -20 -20 -20 -20 -20 -20 -20 -20 -20 -20 -20 -17 2 -20 -20 -20 -20 -20 -20 -20 -20 -20 -20 -20 -20 -20 -20
-18 -20 6 -3 -20 -15 3 -20 -18 9 -10 -20 -20 -20 -20 -20 -20 -20 -20 -20 -20 -20 -20 -20 -15 -19 -20 -20 -20 -20 -20 -20 29 1 -8 -20 -20 -20 -20 -20 -20 -20 -20 -20 -20 -20 -20
2 1 7 -20 6 -16 4 -20 -20 -0 12 -16 -20 -20 -20 -20 -20 -20 -20 -20 -20 -20 -20 -20 -20 -20 -20 -20 -20 -20 -20 -13 25 7 -11 -12 -20 -20 -20 -20 -20 -20 -20 -20 -20 -20 -20
-2 -20 6 5 -20 -13 -12 -20 -20 -3 -20 -20 -20 -20 -20 -10 -20 -20 -20 -20 -20 -20 -20 -20 -20 -20 -20 -20 -20 -20 -20 -14 24 5 -2 -20 -20 -20 -4 -20 -20 -20 -20 -20 -20 -20 -20
-20 -20 -20 10 -20 -20 -4 -20 -20 2 -4 -20 -20 -20 -20 -20 -20 -20 -20 -20 -20 -20 -20 -20 -20 -20 -20 -20 -20 -20 -20 -1 24 0 -20 -11 -20 -20 -18 -20 -20 -20 -20 -20 -20 -20 -20
8 10 -20 -4 8 -20 -20 14 7 -10 -8 -20 -20 -20 -5 -20 -20 -20 -20 -20 -20 -20 -20 -20 -20 -20 -20 -20 -20 -20 -20 -2 25 21 -20 -8 -13 -20 -19 -15 -20 -20 -20 -20 -20 -20 -20
-3 -2 -6 9 -20 -18 -17 6 -13 -20 9 -19 -20 -20 -20 -20 -20 -20 -20 -20 -20 -20 -17 -20 -20 -20 -20 -20 -20 -20 -3 0 18 7 13 20 -18 -19 11 -6 -20 -20 -20 -20 -20 -20 -20
-6 -7 -20 -20 -20 13 -14 -20 -6 2 -20 4 -20 -20 -20 -20 -20 -20 -20 -11 -20 -20 -19 -20 -20 -20 -20 -20 -20 -20 -2 6 -12 4 16 8 -15 8 12 -16 -20 -20 -20 -20 -20 -20 -20
-20 -20 -17 4 -20 9 -2 3 -20 -20 -20 -20 -0 -9 -20 -20 -20 -17 -20 -20 -20 -20 -17 -20 -20 -20 -20 -20 -20 -20 -3 -19 1 12 25 13 -19 13 5 -20 -20 -20 -20 -20 -20 -20 -20
13 -9 13 12 10 -20 13 -13 1 -20 -20 -20 5 -8 -20 -20 -19 -18 -20 -20 -20 -10 -20 -20 -20 -20 -20 -20 -20 -20 -1 -20 -10 9 16 13 -8 -14 -10 -20 -20 -20 12 -20 -20 -20 -20
20 -10 7 -17 -18 -20 -20 15 -20 -20 -10 -20 -18 -11 -20 -20 -17 -20 -20 -20 -12 -0 -20 -20 -20 -20 -20 -20 -20 -12 4 -20 9 13 13 2 4 1 -20 2 -20 -20 -16 -20 -20 -20 -20
-20 4 -14 -20 -4 -20 -20 -20 14 -20 -20 -20 -20 -20 -18 -20 -15 -20 -20 4 -1 -20 -20 -20 -20 -20 -20 -20 -20 -20 -20 3 -5 3 -20 -2 -8 -20 -10 13 1 -20 -20 -20 -20 -20 -20
-3 -20 -18 13 -20 13 -20 -17 17 0 -20 -20 -20 -20 -20 -20 -20 -7 14 9 -20 -20 -20 -20 -20 -20 -20 -20 -20 -20 -20 -13 1 8 11 3 5 -20 -13 -8 12 -20 -20 -20 -20 -20 -20
-17 -20 -20 -20 -20 12 5 -20 -20 -6 -7 5 -20 -20 -20 -20 -18 -14 17 5 -20 -20 -20 -20 -20 -20 -20 -20 -20 -20 -20 -15 -8 9 4 3 -20 13 1 3 15 6 -20 -20 7 1 -15
15 15 -2 -20 13 5 -0 -12 -7 -20 0 -6 -10 -9 -16 -20 -11 14 15 -20 -20 -20 -20 -20 -20 -20 -20 -20 -20 -20 -7 -20 -8 -13 2 -7 -20 -13 8 -14 -20 6 5 -20 -15 -20 -5
-20 -20 -14 -20 19 -6 -20 -18 -20 -16 4 17 4 14 -20 -20 3 21 14 -20 -20 -20 -20 -20 -20 -20 -20 -20 -20 -20 -16 1 -20 -11 -6 -14 4 9 -2 8 -20 -1 5 -14 -10 -12 -17
-20 -20 -20 -20 -20 -6 -4 -20 9 -18 -8 12 10 17 9 16 17 11 10 -20 -20 -20 -20 -20 -20 -20 -20 -20 -20 -20 -20 -20 -20 -20 25 -6 -15 -5 4 5 7 8 6 -4 5 9 -20
11 -20 -14 3 -16 -3 19 -13 -20 4 16 15 11 12 2 24 16 14 -8 1 -20 -20 -20 -20 -20 -20 -20 -20 -20 -20 -20 -18 -20 -20 -20 0 -20 -9 13 -2 -6 4 9 6 4 -2 15
-20 0 -8 -20 -20 2 7 -5 -20 -9 18 16 21 21 -1 25 16 13 7 9 6 -20 -20 -20 -20 -20 -20 -20 -20 -20 -20 -20 -20 -10 -20 -20 -20 -20 -3 14 2 -20 1 1 -1 -2 -12
13 -2 -2 -4 -10 -20 -13 11 -20 -20 6 24 14 5 19 13 8 14 18 22 5 9 -20 -20 -20 -20 -20 -20 -20 -20 -20 -18 -20 -9 11 12 14 -9 -2 -8 -10 13 -4 -6 -3 -5 16
-20 -20 17 20 -20 17 -2 17 17 14 16 25 18 17 18 13 21 8 10 2 12 13 8 8 -20 -20 -18 -20 -20 12 -20 6 -20 -20 -4 20 8 -20 -6 -20 -20 -17 -9 -20 -20 -20 -20
-6 5 1 -18 -20 -20 7 22 19 19 21 23 9 16 16 14 -5 19 21 -20 -20 -20 6 8 -20 -4 18 -20 11 -7 1 22 -20 -20 -4 -1 6 18 2 -20 -20 -20 -20 -20 -3 -18 -20
1 -4 6 13 -19 -20 -20 10 19 18 18 7 20 18 23 2 15 13 -10 22 17 -12 -20 -13 -4 22 8 -12 -20 -20 -20 -20 -20 -20 -20 -20 -0 16 19 -2 9 -3 -20 -20 -20 -20 -20
12 12 8 15 7 12 11 -20 -11 21 19 23 24 22 22 19 -9 -12 16 12 -20 -4 12 12 -19 23 28 -20 -16 3 6 11 -11 -20 -20 -20 -20 10 -20 -18 -20 -18 -20 -20 -20 -20 -20
7 1 -13 9 8 8 14 19 14 12 2 23 9 22 21 20 3 -18 -11 -20 8 17 11 20 -17 -20 25 20 18 13 18 13 17 1 -20 -19 -20 7 20 -3 -11 -20 -20 -20 -20 -20 -20
17 22 21 16 2 0 3 -4 3 1 20 23 22 20 22 17 -20 10 3 23 2 -7 17 20 14 2 8 28 16 20 23 10 24 21 10 6 3 -5 1 7 -20 -20 -20 -20 -20 23 -20
32 29 27 32 22 -18 3 -20 -20 -20 18 21 14 20 22 12 -20 -8 -9 3 -13 22 23 19 11 25 18 19 14 19 17 13 5 12 17 3 10 9 6 18 12 -20 -20 -14 -20 -20 -20
24 30 30 26 31 4 -7 -20 -18 12 13 -12 19 7 19 23 1 5 -20 -20 -12 8 6 24 -2 22 14 21 19 19 18 17 16 16 23 14 -17 19 -17 -18 -20 -20 -20 -20 -20 -20 -20
Wind_Speed
7 8 8 10 11 12 13 13 10 10 13 15 16 15 16 17 17 18 17 18 19 20 20 19 17 16 13 9 18 9 5 5 4 10 14 17 19 20 22 20 19 22 21 19 16 13 11
9 8 9 8 11 12 13 11 12 11 12 14 15 15 16 18 18 19 18 18 19 20 20 20 17 13 12 18 11 5 4 3 6 9 15 15 16 15 18 21 18 19 17 22 15 15 16
10 10 9 9 9 12 11 12 14 15 12 13 14 15 17 19 19 20 20 20 21 21 22 21 16 11 13 24 6 1 7 7 8 14 18 16 15 14 13 18 15 17 21 17 20 18 16
11 10 11 10 9 11 10 12 14 12 12 13 14 16 17 17 18 20 21 21 23 23 22 18 10 12 11 7 10 17 13 17 9 14 16 17 15 15 18 14 16 15 20 19 19 19 19
8 11 12 10 11 11 10 12 14 11 11 13 15 16 17 17 19 21 23 24 25 22 12 5 10 11 10 4 9 11 13 14 7 15 17 13 13 16 17 17 15 17 15 21 18 15 10
12 13 13 13 10 11 14 11 13 12 9 11 16 18 17 17 19 22 25 29 18 10 12 8 6 9 7 6 7 3 5 9 8 11 13 16 11 15 18 17 16 17 19 18 18 14 13
13 13 12 11 10 12 14 14 12 13 10 11 15 18 19 18 20 21 21 19 5 10 8 14 15 17 15 1 12 8 8 9 10 11 17 17 16 21 25 24 23 20 18 15 13 4 8
13 12 13 13 15 14 14 14 13 9 11 11 12 16 19 19 21 21 18 7 5 7 15 17 19 19 21 18 11 13 10 15 14 14 15 16 22 21 22 24 23 24 24 15 14 3 7
15 13 13 15 15 16 14 13 12 10 11 13 14 14 17 18 21 13 9 7 8 9 9 10 5 5 4 9 14 14 15 14 13 15 19 23 18 20 22 21 22 21 22 18 17 7 9
15 14 15 15 15 15 13 14 10 12 10 12 13 13 14 17 10 9 7 8 8 6 7 6 4 4 4 2 6 20 11 13 6 17 18 21 23 10 20 24 18 21 18 19 16 15 13
14 14 15 14 15 13 15 13 12 12 9 12 12 13 13 10 12 11 10 10 10 1 8 4 6 4 4 6 8 4 13 19 16 14 14 19 9 17 23 19 20 20 15 15 15 17 16
16 15 14 13 13 14 14 14 11 11 10 10 12 12 13 13 6 13 10 13 8 7 5 3 1 5 7 8 7 2 4 12 12 20 16 18 15 14 14 19 18 16 11 11 13 14 15
14 15 14 15 15 15 13 15 12 9 12 9 12 11 11 11 10 10 10 10 9 8 6 3 3 8 10 7 4 9 6 10 10 12 21 20 22 14 13 19 18 18 14 10 12 13 14
18 15 15 18 16 17 13 11 11 10 11 11 10 11 12 11 9 8 9 10 11 4 3 3 5 12 5 5 4 6 8 9 15 16 13 18 15 22 12 15 18 20 18 9 14 12 14
19 18 17 17 18 15 14 13 11 13 10 9 10 11 12 11 10 9 9 11 6 6 4 6 11 10 3 3 7 4 9 1 5 19 14 13 22 9 14 12 16 17 23 20 18 10 8
16 18 18 18 15 16 14 15 13 11 10 8 8 8 13 11 10 9 7 15 12 6 4 5 8 1 5 5 7 8 2 7 2 10 17 13 11 15 14 14 19 22 11 19 11 12 12
18 18 17 18 17 15 12 12 13 9 9 7 5 4 3 11 9 6 11 15 12 9 6 8 8 7 7 7 5 8 2 5 10 10 10 14 12 9 11 18 19 15 19 14 15 15 9
20 18 18 18 18 17 15 16 15 9 10 10 5 5 4 8 8 5 11 17 15 9 13 14 9 12 11 9 9 6 6 4 7 12 9 15 7 11 18 20 20 18 21 20 10 9 12
21 20 18 18 19 17 16 18 15 10 13 8 6 7 6 8 9 12 13 16 18 15 16 13 13 14 12 11 7 7 10 4 6 6 10 14 9 10 15 11 9 14 19 20 20 14 11
22 20 20 21 19 18 16 17 13 11 14 10 4 5 8 9 9 13 15 14 18 16 20 15 12 12 10 12 11 9 8 3 5 3 5 11 11 14 12 11 13 15 6 10 10 10 13
21 20 20 20 20 19 18 18 16 16 16 7 6 7 6 8 14 17 15 7 19 18 15 16 13 16 15 15 14 15 15 12 7 6 4 5 7 12 9 6 5 6 14 11 12 12 10
21 20 20 21 22 21 21 20 19 19 19 7 4 5 10 12 13 18 19 17 17 14 14 16 16 16 16 17 13 9 8 6 10 5 5 7 4 10 8 6 6 7 9 11 13 12 12
23 22 22 21 21 21 20 19 20 20 17 5 8 9 5 8 16 14 12 18 20 17 12 17 13 13 13 12 10 11 11 8 13 13 11 8 6 5 5 7 8 8 14 13 13 14 13
25 24 24 23 23 22 22 20 20 20 21 5 4 8 7 10 11 13 19 17 14 15 17 12 14 13 6 5 7 11 13 15 16 18 14 12 10 10 5 6 5 6 5 3 12 13 11
26 27 26 26 24 24 23 21 22 20 22 10 9 7 6 9 15 17 15 14 12 10 16 12 10 8 5 4 5 9 10 12 14 20 18 15 12 6 6 7 10 5 3 9 7 7 3
28 28 28 26 25 23 23 23 22 21 22 11 8 10 5 7 13 17 19 16 13 11 12 9 4 5 4 2 4 8 8 11 11 8 19 16 13 9 5 11 11 4 3 2 2 7 12
30 30 30 28 27 25 24 23 22 21 23 11 6 16 6 6 16 14 7 10 10 11 10 1 3 5 8 5 6 7 8 4 5 9 16 14 12 14 11 8 7 8 9 1 11 6 9
31 31 32 32 29 27 25 24 23 22 23 16 11 11 12 6 15 16 17 14 11 4 4 3 2 5 4 6 6 6 5 4 6 2 15 14 10 9 13 10 13 8 3 8 9 4 8
24 22 22 27 31 28 26 24 23 22 23 21 11 12 10 7 8 7 19 21 19 14 6 5 8 2 8 8 7 2 5 2 8 5 12 10 10 8 11 9 3 3 8 9 7 7 8
Wind_Direction
321 326 322 324 326 325 320 319 326 333 336 330 329 322 319 317 318 314 311 308 303 303 301 305 311 324 312 255 253 288 322 200 216 216 230 231 222 227 227 235 233 233 243 263 253 244 234
315 316 317 323 329 328 342 344 333 331 328 323 325 327 324 320 318 312 308 304 301 299 297 299 303 307 269 264 272 257 268 324 318 238 253 242 233 230 244 248 251 243 241 260 244 239 232
297 300 305 319 320 314 324 332 322 317 320 326 327 328 325 320 318 309 304 302 298 297 293 294 291 257 253 246 281 292 250 268 285 290 278 257 255 265 257 258 264 264 263 257 249 240 238
289 296 302 298 306 309 318 325 318 325 332 334 335 330 324 318 314 306 304 301 298 293 293 287 256 219 257 289 284 249 258 247 254 259 258 273 277 263 256 275 266 255 243 254 248 223 232
291 301 296 300 293 302 313 314 311 315 328 330 328 328 324 318 315 311 307 305 296 289 276 239 187 220 272 93 242 248 234 252 270 246 243 257 250 248 236 235 245 236 246 231 248 221 235
295 289 292 288 286 298 304 298 304 317 326 330 330 327 320 322 320 316 312 297 285 274 224 226 260 220 245 300 335 315 236 225 231 249 219 228 237 235 233 231 231 239 218 243 260 200 204
292 293 285 291 299 291 294 291 298 326 317 330 329 325 321 327 321 318 313 303 231 204 250 281 293 268 294 238 331 231 171 196 200 240 223 202 220 225 226 224 247 257 264 278 245 219 210
292 299 302 296 289 281 288 297 296 325 327 324 328 324 323 326 317 315 298 350 27 336 297 278 258 263 266 273 280 277 170 216 224 240 218 251 228 231 239 241 235 242 254 255 267 120 238
288 289 289 293 299 288 278 284 298 301 312 321 324 324 325 323 316 297 311 328 308 342 270 302 260 281 314 232 231 249 193 221 187 205 255 233 234 224 250 234 238 229 242 247 262 222 226
276 278 281 280 286 298 289 281 287 290 308 315 315 322 327 326 293 309 276 330 339 335 279 129 143 108 146 248 224 241 246 227 224 219 211 265 240 227 225 239 227 243 232 245 257 259 256
280 279 278 280 284 290 291 274 279 285 293 306 314 318 321 313 311 295 322 320 309 334 286 81 108 81 121 244 329 177 224 234 248 224 244 237 242 233 244 236 226 245 259 247 234 252 259
286 281 275 278 277 288 296 285 278 270 281 307 307 314 321 279 254 273 311 313 269 236 232 143 128 338 289 234 222 181 219 235 255 262 249 261 270 232 252 249 245 253 214 246 236 244 240
291 292 276 276 276 274 281 285 276 264 282 289 296 303 294 294 272 321 301 270 244 246 117 88 354 319 301 281 213 201 193 188 193 218 238 243 249 229 210 238 233 228 199 209 217 221 234
284 280 280 279 277 270 274 286 284 274 269 281 291 302 276 258 256 283 275 237 249 7 255 357 298 304 289 347 151 218 181 237 221 232 249 232 219 234 187 212 235 209 207 216 216 231 221
291 282 281 280 286 271 265 268 265 277 269 272 296 270 250 242 232 240 255 226 249 270 359 294 296 268 213 348 290 269 218 243 241 224 215 260 237 207 199 203 247 216 224 234 267 249 276
275 278 286 283 269 265 254 263 278 280 267 254 283 308 268 247 210 214 220 238 247 245 283 258 270 251 278 1 319 313 129 18 1 248 236 255 273 242 206 204 218 253 228 220 228 245 238
283 280 279 282 270 266 268 260 260 261 248 244 267 261 197 184 181 208 221 223 243 245 218 249 255 261 270 310 322 313 5 114 18 351 276 251 260 230 219 206 212 212 242 249 231 221 237
273 275 276 274 272 273 245 244 255 241 226 240 242 235 124 168 192 198 227 229 265 266 235 250 265 265 268 289 296 291 269 316 41 336 298 224 287 226 239 215 228 219 216 231 235 210 237
270 272 272 272 271 267 248 253 256 244 211 254 236 239 220 193 216 219 223 242 252 243 242 231 232 246 266 274 271 245 258 67 14 325 348 353 234 245 212 186 217 232 222 231 227 238 214
273 275 270 269 260 261 250 247 237 236 227 227 260 233 219 198 245 256 228 230 227 224 256 237 249 252 246 246 250 264 263 303 334 7 347 320 250 255 238 244 198 213 204 225 238 212 231
273 271 271 264 260 257 256 247 239 219 225 208 212 245 220 210 227 225 243 246 221 226 226 240 231 245 243 249 247 251 267 263 268 143 174 302 284 304 248 328 315 255 190 202 226 233 257
269 268 264 260 258 255 248 242 234 219 213 217 214 232 242 254 247 227 221 233 259 232 218 219 238 237 236 245 249 270 266 288 289 300 308 186 292 306 281 239 256 253 242 240 229 244 242
268 263 258 257 252 251 250 244 229 215 212 209 227 252 299 252 245 237 226 230 234 249 244 245 238 256 241 254 311 299 304 247 271 283 287 281 235 211 266 268 296 262 241 236 238 239 239
265 263 261 253 248 244 242 240 232 221 204 200 231 218 233 248 248 242 244 225 230 246 242 255 264 231 263 355 304 271 264 262 252 247 249 256 250 243 219 200 222 239 52 245 240 247 251
263 260 257 253 246 241 236 232 230 225 213 209 227 232 225 244 249 248 246 258 254 248 236 262 262 281 350 25 309 261 235 239 242 236 225 226 259 270 251 250 275 230 279 234 224 242 130
258 254 251 246 242 234 232 228 228 225 218 216 217 242 214 250 243 277 254 252 239 245 260 233 219 101 194 151 211 248 227 220 196 197 206 201 229 247 202 248 254 282 115 332 257 235 106
257 249 244 240 234 229 224 226 225 220 215 201 220 220 222 244 256 265 281 280 249 245 259 183 147 194 184 190 238 243 238 226 214 186 183 189 199 223 234 248 262 265 153 43 225 95 71
261 256 244 227 228 222 221 219 218 211 209 208 221 220 208 233 256 262 261 257 261 242 230 67 140 178 176 215 238 230 237 241 244 225 187 182 190 206 228 236 241 258 149 246 48 33 27
269 258 249 224 213 217 211 211 211 210 207 205 230 213 202 226 268 284 270 259 269 273 269 224 259 271 195 220 235 172 264 186 264 233 206 200 207 199 193 217 158 108 82 66 25 7 14